Regional Weather Roundup
Issued by NWS

Home | Current Version | Previous Version | Text Only | Print | Product List | Glossary On
Versions: 1 2 3 4 5 6 7 8 9 10 11 12 13 14 15 16 17 18 19 20 21 22 23 24 25 26 27 28 29 30 31 32 33 34 35 36 37 38 39 40 41 42 43 44 45 46 47 48 49 50
000
ASUS43 KMKX 200921
RWRWI

WISCONSIN REGIONAL WEATHER ROUNDUP
NATIONAL WEATHER SERVICE MILWAUKEE/SULLIVAN WI
400 AM CDT WED AUG 20 2014

NOTE: "FAIR" INDICATES FEW OR NO CLOUDS BELOW 12,000 FEET WITH NO
SIGNIFICANT WEATHER AND/OR OBSTRUCTIONS TO VISIBILITY.

WIZ001-002-006>008-014>016-023>028-201000-
NORTHWEST WISCONSIN

CITY           SKY/WX    TMP DP  RH WIND       PRES   REMARKS
SUPERIOR ARPT  CLOUDY    60  59  96 CALM      29.84R
ASHLAND        CLOUDY    59  58  96 CALM      29.85R
HAYWARD        CLOUDY    60  60 100 NE5       29.85R
SIREN          PTCLDY    56  56  98 CALM      29.85R
RICE LAKE      CLOUDY    61  60  96 CALM      29.86R
LADYSMITH      CLOUDY    60  58  96 NE6       29.86R
EAU CLAIRE     FOG       60  60 100 CALM      29.82R VSB 3/4
MENOMONIE      PTSUNNY   62  61  97 CALM      29.83S
NEW RICHMOND   FOG       60  60 100 CALM      29.83S VSB 1/2
OSCEOLA        FOG       60  60 100 CALM      29.85S VSB 1/2
$$

WIZ003>005-009-010-017-018-201000-
NORTH CENTRAL WISCONSIN

CITY           SKY/WX    TMP DP  RH WIND       PRES   REMARKS
WOODRUFF       CLOUDY    59  57  91 N5        29.82R
RHINELANDER    CLOUDY    59  57  93 CALM      29.82R
EAGLE RIVER    CLOUDY    58  57  99 N6        29.81R
LAND O LAKES   CLOUDY    57  56  97 N5        29.83R
PHILLIPS       CLOUDY    58  57  97 NW3       29.83R
TOMAHAWK       CLOUDY    58  57  96 CALM      29.83R
MEDFORD        CLOUDY    58  58  99 N5        29.84R
MERRILL        CLOUDY    59  59  99 CALM      29.82R
$$

WIZ029-030-035-036-043>047-201000-
CENTRAL WISCONSIN

CITY           SKY/WX    TMP DP  RH WIND       PRES   REMARKS
WAUSAU         MOCLDY    61  59  93 CALM      29.81R
MOSINEE        CLOUDY    61  61 100 CALM      29.84R
MARSHFIELD     CLOUDY    61  60  97 NW3       29.82R FOG
STEVENS POINT  CLOUDY    58  58  99 CALM      29.83R
WAUPACA        CLOUDY    64  63  95 CALM      29.81R
WAUTOMA        CLEAR     58  58 100 CALM      29.81S
WISC RAPIDS    FOG       61  60  97 CALM      29.83R VSB 1/4
CAMP DOUGLAS   FOG       55  55 100 CALM      29.82S VSB 3/4
$$

WIZ011>013-019>022-031-037>040-048>050-201000-
NORTHEAST WISCONSIN

CITY           SKY/WX    TMP DP  RH WIND       PRES   REMARKS
ANTIGO         CLOUDY    59  58  98 NW3       29.82R
STURGEON BAY   PTCLDY    61  57  88 NW3       29.78R
GREEN BAY      MOCLDY    60  60 100 W5        29.79R
MANITOWOC      CLOUDY    64  63  94 CALM      29.79R
APPLETON       CLOUDY    61  61 100 W6        29.80R
CLINTONVILLE   MOCLDY    61  59  94 CALM      29.81R
OSHKOSH        MOCLDY    64  62  93 W5        29.79R
$$

WIZ032>034-041-042-053>061-201000-
SOUTHWEST WISCONSIN

CITY           SKY/WX    TMP DP  RH WIND       PRES   REMARKS
LA CROSSE      PTCLDY    66  63  90 S5        29.81R
SPARTA         MOCLDY    58  57  97 CALM      29.83R
VIROQUA        FAIR      61  61 100 CALM      29.83S
BOSCOBEL       CLEAR     63  61  93 CALM      29.82R FOG
PRAIRIE DU CHI CLEAR     64  62  94 CALM      29.82R
PLATTEVILLE    FAIR      66  63  90 CALM      29.84F
$$

WIZ056-057-062-063-064-067-068-201000-
SOUTH CENTRAL WISCONSIN

CITY           SKY/WX    TMP DP  RH WIND       PRES   REMARKS
BARABOO/DELLS  CLEAR     60  58  93 CALM      29.82S FOG
LONE ROCK      CLOUDY    65  61  87 CALM      29.83R FOG
WATERTOWN      CLEAR     62  62  99 CALM      29.81R
MADISON        PTCLDY    63  60  90 CALM      29.82R
MIDDLETON      FAIR      62  62 100 CALM      29.83R
MONROE         PTCLDY    66  63  88 W12       29.83S
JANESVILLE     CLEAR     64  63  94 CALM      29.81S
$$

WIZ051-052-058>065-066-070>072-201000-
SOUTHEAST WISCONSIN

CITY           SKY/WX    TMP DP  RH WIND       PRES   REMARKS
MILWAUKEE      CLEAR     67  62  84 W5        29.79R
WAUKESHA       CLEAR     63  59  88 W3        29.82R
MILWAUKEE/TIMM CLEAR     64  59  82 W3        29.80R
RACINE         CLEAR     66  62  87 W6        29.81R
BURLINGTON     CLEAR     60  60  99 SW3       29.81R
KENOSHA        CLEAR     63  62  97 W6        29.80R
FOND DU LAC    CLEAR     61  59  93 CALM      29.80R
SHEBOYGAN      MOCLDY    62  60  93 W3        29.78S
WEST BEND      CLEAR     63  59  88 CALM      29.80R
JUNEAU         PTCLDY    61  36  39 SW3       29.82S
$$

LSZ147-162-201000-
LAKE SUPERIOR

STATION/POSITION TIME  TEMP    WIND        PRES    WAVE
                       AIR SEA DIR/SP/G            HT/PER
                 (UTC) (F)     (DEG/KT/KT) (MB)    (FT/S)
W MID LAKE BUOY  0850   58 57  270/  4/  6 1009.5R   1/ 4
DEVILS ISLAND    0900   60     290/  2/  3 1010.2R
PORT WING        0800   61      CALM  /  1 1010.2S
SAXON HARBOR     0800   60      40/  3/  8 1010.2R
$$

LMZ867-665-643>646-201000-
LAKE MICHIGAN

STATION/POSITION TIME  TEMP    WIND        PRES    WAVE
                       AIR SEA DIR/SP/G            HT/PER
                 (UTC) (F)     (DEG/KT/KT) (MB)    (FT/S)
N MID LAKE BUOY  0850   61 61  300/ 12/ 14 1006.3R   1/ 5
NORTHPORT PIER   0800   63     330/ 11/ 13 1007.5R
SISTER BAY       0841   64     340/ 10/ 11   N/A
KEWAUNEE LAKESHO 0900   64     310/  2/  3 1007.3R
SHEBOYGAN LAKESH 0900   66 65  290/  5/  6 1008.4R
ATWATER BUOY     0900   68     260/  6     1009.8R
MILWAUKEE LAKESH 0900   69     280/  5/  8   N/A
S MID LAKE BUOY  0850   67 66  260/  6/  6 1008.7R   1
KENOSHA   LAKESH 0900   69     270/  7/  8 1008.8R
$$

TC  - TEMPERATURE IN CELSIUS
VSB - VISIBILITY IN STATUTE MILES
WCI - WIND CHILL INDEX
HX  - HEAT INDEX



USA.gov is the U.S. government's official web portal to all federal, state and local government web resources and services.